Regional Weather Roundup
Issued by NWS

Home | Current Version | Previous Version | Graphics & Text | Print | Product List | Glossary On
Versions: 1 2 3 4 5 6 7 8 9 10 11 12 13 14 15 16 17 18 19 20 21 22 23 24 25 26 27 28 29 30 31 32 33 34 35 36 37 38 39 40 41 42 43 44 45 46 47 48 49 50
000
ASUS43 KOAX 281910
RWRNE

WEATHER ROUNDUP FOR NEBRASKA
NATIONAL WEATHER SERVICE OMAHA NE
200 PM CDT WED JUN 28 2017

NOTES: SATELLITE DATA IS BEING USED TO AUGMENT CLOUD COVER ABOVE
       12000 FEET.
       "FAIR" INDICATES FEW OR NO CLOUDS BELOW 12,000 FEET WITH NO
       SIGNIFICANT WEATHER AND/OR OBSTRUCTIONS TO VISIBILITY.

  * THESE STATIONS DO NOT REPORT WEATHER SUCH AS RAIN...SNOW OR FOG.

NEZ001>004-019>022-054>056-282000-
NEBRASKA PANHANDLE

CITY           SKY/WX    TMP DP  RH WIND       PRES   REMARKS
SCOTTSBLUFF    SUNNY     81  46  29 VRB5      29.83F
ALLIANCE       SUNNY     79  47  32 VRB5      29.83F
CHADRON        SUNNY     80  44  27 VRB5      29.79F
GORDON         FAIR      77  51  39 NW8       29.82S
KIMBALL        SUNNY     83  40  21 W6G18     29.89F
SIDNEY         SUNNY     83  46  27 MISG      29.87F
$$

NEZ057>060-069>072-079>082-282000-
SOUTHWEST NEBRASKA

CITY           SKY/WX    TMP DP  RH WIND       PRES   REMARKS
NORTH PLATTE   SUNNY     87  52  29 W8G20     29.78F
IMPERIAL       SUNNY     87  43  21 N8        29.81F
LEXINGTON      SUNNY     84  58  40 N7        29.77R
MCCOOK         SUNNY     91  50  24 NW10      29.76F
OGALLALA       SUNNY     86  46  24 NW8       29.81F
$$

NEZ005>010-023>029-035>040-094-282000-
NORTH CENTRAL NEBRASKA

CITY           SKY/WX    TMP DP  RH WIND       PRES   REMARKS
VALENTINE      MOSUNNY   87  50  27 NW16G22   29.75
AINSWORTH      MOSUNNY   83  55  37 W12G22    29.75S
BROKEN BOW     SUNNY     86  56  35 W10       29.75S
O`NEILL        SUNNY     85  58  40 W12       29.70S
ORD            SUNNY     85  56  37 NW7       29.71S
THEDFORD       SUNNY     85  52  32 NW15G21   29.78F
$$

NEZ041-046>049-061>064-073>077-083>087-282000-
SOUTH CENTRAL NEBRASKA

CITY           SKY/WX    TMP DP  RH WIND       PRES   REMARKS
GRAND ISLAND   SUNNY     86  64  47 W10       29.73S
AURORA         SUNNY     84  67  55 W13       29.72S
HASTINGS       SUNNY     87  61  41 W10G17    29.74S
HEBRON         MOSUNNY   92  65  41 SW15G22   29.70F HX  94
HOLDREGE       SUNNY     83  60  44 N8        29.76S
KEARNEY *      SUNNY     84  57  39 NW8       29.75F
YORK           MOSUNNY   84  70  61 W12       29.71F
$$

NEZ011>018-030>034-042>045-282000-
NORTHEAST NEBRASKA

CITY           SKY/WX    TMP DP  RH WIND       PRES   REMARKS
NORFOLK        SUNNY     84  62  47 W14G23    29.65S
ALBION         SUNNY     86  61  42 W8        29.70S
BLAIR          CLOUDY    84  69  61 SW16G24   29.67F
FREMONT        PTSUNNY   85  66  53 SW17G23   29.67F
TEKAMAH        MOSUNNY   87  66  49 SW22G28   29.63F
WAYNE          SUNNY     85  65  51 W15       29.65S
$$

NEZ050>053-065>068-078-088>093-282000-
SOUTHEAST NEBRASKA

CITY           SKY/WX    TMP DP  RH WIND       PRES   REMARKS
LINCOLN        PTSUNNY   87  70  56 W14       29.68F HX  92
OMAHA EPPLEY   PTSUNNY   85  70  60 SW14      29.66F
BEATRICE       PTSUNNY   89  71  55 SW16      29.69F HX  94
FALLS CITY     MOSUNNY   87  71  58 SW15G26   29.70F HX  93
NEBRASKA CITY  CLOUDY    86  75  70 SW16      29.69F HX  94
PLATTSMOUTH    CLOUDY    83  71  66 SW12G20   29.69F
$$

NEZ044-045-051>053-067-282000-
OMAHA AREA

CITY           SKY/WX    TMP DP  RH WIND       PRES   REMARKS
OMAHA EPPLEY   PTSUNNY   85  70  60 SW14      29.66F
BLAIR          CLOUDY    84  69  61 SW16G24   29.67F
FREMONT        PTSUNNY   85  66  53 SW17G23   29.67F
MILLARD        PTSUNNY   87  72  60 SW13G18   29.67F HX  94
OFFUTT AFB     PTSUNNY   85  71  62 SW14G21   29.67F HX  90
PLATTSMOUTH    CLOUDY    83  71  66 SW12G20   29.69F
WAHOO          FAIR      85  68  55 W17G26    29.67F
$$



USA.gov is the U.S. government's official web portal to all federal, state and local government web resources and services.